Preview of NWS' New Version of Forecast
This preview is not operational and should not be used for support decisions.

Regional Weather Roundup (RWR)

Issued by National Weather Service (NWS)

                            
000
ASUS42 KTBW 172016
RWRFL 
FLORIDA REGIONAL WEATHER ROUNDUP
NATIONAL WEATHER SERVICE TAMPA BAY RUSKIN FL
400 PM EDT SUN MAR 17 2019

NOTE: "FAIR" INDICATES FEW OR NO CLOUDS BELOW 12,000 FEET WITH NO
SIGNIFICANT WEATHER AND/OR OBSTRUCTIONS TO VISIBILITY.

FLZ001>010-012>015-112-114-115-172100-
PANHANDLE FLORIDA
  
CITY           SKY/WX    TMP DP  RH WIND       PRES   REMARKS
PENSACOLA      FAIR      65  30  27 N14       30.16F                  
PENSACOLA NAS  CLOUDY    66  30  26 N12G20    30.17F                  
MILTON NAS     FAIR      64  32  30 NE8       30.17F                  
CRESTVIEW      FAIR      66  31  27 N9        30.17F                  
DUKE FIELD     PTSUNNY   64  30  28 N12       30.15F                  
VALPARAISO     FAIR      65  29  26 NE13      30.15F                  
MARY ESTHER    PTSUNNY   65  30  27 NE10      30.14F                  
PANAMA CITY    CLOUDY    63  37  38 N8        30.14F                  
TYNDALL AFB    PTSUNNY   64  36  35 N9        30.14F                  
APALACHICOLA   PTSUNNY   63  41  44 NW7       30.13F                  

STATION/POSITION SKY/WX   TEMP    WIND        PRES    WAVE   SWELL
                          AIR SEA DIR/SP/G            HT/PER HT/PER
                          (F)     (DEG/KT/KT) (MB)    (FT/S) (FT/S)
30.1N   87.6W                                 1022.4F   2/ 4
29.2N   88.2W                      20/ 14/ 17 1022.6F   3/ 5
PANAMA CITY BEAC           62 66   10/  7/ 12 1021.3F
TOWER C                    58      50/  8/  8 1020.7F

$$
FLZ011-016>038-118-127-128-134-139-239-172100-
NORTH FLORIDA
  
CITY           SKY/WX    TMP DP  RH WIND       PRES   REMARKS
TALLAHASSEE    CLOUDY    61  44  53 NE10      30.14F                  
PERRY          PTSUNNY   63  49  59 N7        30.13F                  
LIVE OAK       CLOUDY    59  50  72 NE6       30.13F                  
CROSS CITY     CLOUDY    62  51  66 NE8       30.11F                  
LAKE CITY      PTSUNNY   57  50  77 NE8       30.13R                  
GAINESVILLE    CLOUDY    65  50  58 NE9       30.12F                  
WILLISTON        N/A    N/A N/A N/A MISG        N/A                   
PALATKA        CLOUDY   N/A N/A N/A E6        30.12F                  
MAYPORT NAS    CLOUDY    57  51  80 N14       30.13F                  
JACKSONVILLE   CLOUDY    57  50  77 N9        30.13F                  
JAX NAS        CLOUDY    59  49  69 N12       30.13F                  
JAX CECIL      PTSUNNY  N/A N/A N/A NE9       30.12F                  
FERNANDINA BEA CLOUDY    56  51  83 N9        30.12F                  
ST AUGUSTINE   CLOUDY    58  52  80 N12       30.13S                  
PALM COAST     PTSUNNY   57  54  88 NE12G20   30.10F                  

STATION/POSITION SKY/WX   TEMP    WIND        PRES    WAVE   SWELL
                          AIR SEA DIR/SP/G            HT/PER HT/PER
                          (F)     (DEG/KT/KT) (MB)    (FT/S) (FT/S)
SHELL POINT      NOT AVBL
KEATON BEACH               61      30/  8/ 10 1020.1F
CEDAR KEY                  62      50/  8/ 11 1018.5F
FERNANDINA                 57 65  360/  7/ 10 1021.1F
30.7N   81.3W                 63                N/A     3/ 5
MAYPORT                    56 65   10/ 11/ 15 1020.3F
31.4N   80.9W              57 62   20/ 14/ 16 1020.7F   3/ 5   2/ 6
ST AUGUSTINE               57 64   10/ 19/ 20 1019.7F

$$
FLZ040-043>046-052-053-057-058-063-144-172100-
INTERIOR CENTRAL FLORIDA
  
CITY           SKY/WX    TMP DP  RH WIND       PRES   REMARKS
OCALA          CLOUDY    64  55  72 E9        30.10F                  
LEESBURG       CLOUDY    62  55  77 NE12      30.09F                  
SANFORD        CLOUDY    61  55  81 N13       30.09R                  
ORLANDO EXEC   CLOUDY    66  58  75 N15       30.08S                  
ORLANDO INTL   LGT RAIN  68  58  70 N13       30.06F                  
KISSIMMEE      LGT RAIN  70  60  70 NE9       30.06F                  
WINTER HAVEN   CLOUDY    71  61  70 N8        30.06F                  
LAKELAND       PTSUNNY   70  63  78 N7        30.06F                  
BARTOW         CLOUDY    72  63  73 N7        30.05S                  
SEBRING        MOCLDY    76  64  66 N5        30.03F                  
OKEECHOBEE     PTSUNNY   79  64  61 CALM      30.01F                  

$$
FLZ041-047-054-059-064-141-147-172100-
EAST CENTRAL FLORIDA
  
CITY           SKY/WX    TMP DP  RH WIND       PRES   REMARKS
ORMOND BEACH   CLOUDY    59  59 100 N12G20    30.12R FOG              
DAYTONA BEACH  CLOUDY    60  57  89 N9        30.10R                  
DELAND         CLOUDY    59  54  82 N9        30.09F                  
NEW SMYRNA BEA CLOUDY    61  55  82 N16G29    30.11F                  
JFK SPACE CTR  CLOUDY    64  59  83 N9G20       N/A                   
TITUSVILLE     PTSUNNY   68  59  73 N17G23    30.07F                  
CAPE CANAVERAL CLOUDY    66  60  81 N15G22    30.04F                  
PATRICK AFB    CLOUDY    68  63  85 N13       30.04F                  
MELBOURNE      FAIR      72  61  68 N17G23    30.04S                  
VERO BEACH     CLOUDY    72  63  73 N15G21    30.04S                  
FT PIERCE      PTSUNNY   73  63  70 N9G18     30.02F                  
STUART         MOSUNNY   75  64  69 N12       30.02F                  

STATION/POSITION SKY/WX   TEMP    WIND        PRES    WAVE   SWELL
                          AIR SEA DIR/SP/G            HT/PER HT/PER
                          (F)     (DEG/KT/KT) (MB)    (FT/S) (FT/S)
28.5N   80.2W              69     340/ 19/ 21 1017.0F   3/ 4   2/ 7
28.9N   78.5W              71 75   30/ 10/ 14 1016.5F   3/10   2/10
TRIDENT PIER               65 69  340/ 14/ 19 1018.7F
28.4N   80.5W                 69                N/A     3/ 5
27.5N   80.2W                 71                N/A     3/11   2/11

$$
FLZ050-056-061-142-242-148-248-149-249-151-251-155-255-
160-260-172100-
WEST CENTRAL FLORIDA
  
CITY           SKY/WX    TMP DP  RH WIND       PRES   REMARKS
CRYSTAL RIVER  FAIR      66  55  68 E8        30.07F                  
INVERNESS      PTSUNNY   63  59  88 E6        30.09F                  
BROOKSVILLE    PTSUNNY   67  56  67 NE14      30.06F                  
CLEARWATER AIR PTSUNNY   70  59  68 N5        30.05F                  
ST PETE CLEARW CLOUDY    71  61  70 N6        30.05F                  
TAMPA INTL     CLOUDY    72  60  66 N9        30.05F                  
TAMPA EXEC     LGT RAIN  70  63  78 N7        30.07S                  
PLANT CITY     DRIZZLE   72  63  73 N6        30.07S                  
MACDILL AFB    LGT RAIN  71  62  73 NW6       30.05F                  
PETER O KNIGHT DRIZZLE   73  64  73 N3        30.06F                  
ST PETERSBURG  PTSUNNY   71  61  70 N6        30.03F                  
SARASOTA       CLOUDY    78  63  59 N6        30.01F                  
VENICE         PTSUNNY   73  66  78 W12       30.04S                  

STATION/POSITION SKY/WX   TEMP    WIND        PRES    WAVE   SWELL
                          AIR SEA DIR/SP/G            HT/PER HT/PER
                          (F)     (DEG/KT/KT) (MB)    (FT/S) (FT/S)
27.3N   84.2W                 73                N/A     4/ 6
CLEARWATER BEACH           69 74  350/ 12/ 13 1018.1F
MIDDLE TAMPA BAY           70     350/  9/ 10 1017.7F
VENICE                     71 73  280/  9/ 10 1017.4F

$$
FLZ066-069-070-075>078-162-262-165-265-172100-
SOUTHWEST FLORIDA AND KEYS
  
CITY           SKY/WX    TMP DP  RH WIND       PRES   REMARKS
PUNTA GORDA    FAIR      80  64  58 NW5       30.03F                  
FT MYERS       FAIR      80  64  58 W9        30.01F                  
SOUTHWEST INTL PTSUNNY   80  65  59 W7        30.01F                  
NAPLES         FAIR      79  67  66 W12       30.02F                  
MARCO ISLAND   FAIR      81  67  62 W12       30.02F                  
IMMOKALEE      PTSUNNY   82  64  54 W7        29.99F                  
MARATHON       FAIR      84  68  58 N6        30.01F                  
KEY WEST NAS   PTSUNNY   83  69  62 N7        30.02F                  
KEY WEST INTL  FAIR      83  71  67 N8        30.02F                  

STATION/POSITION SKY/WX   TEMP    WIND        PRES    WAVE   SWELL
                          AIR SEA DIR/SP/G            HT/PER HT/PER
                          (F)     (DEG/KT/KT) (MB)    (FT/S) (FT/S)
NAPLES                     76 79  240/  6/  7 1016.7F
26.0N   85.6W              72 80   40/ 12/ 16 1017.4F   3/ 6   2/ 7
DRY TORTUGAS               77      70/  5/  6 1016.6F
SAND KEY                   77                 1016.6F
SOMBRERO KEY               77                 1015.9F

$$
FLZ067-068-071>074-168-172>174-172100-
SOUTHEAST FLORIDA 
  
CITY           SKY/WX    TMP DP  RH WIND       PRES   REMARKS
W PALM BEACH   PTSUNNY   79  68  69 NE10      30.00F                  
BOCA RATON     PTSUNNY   79  70  73 E9        30.00F                  
FT LAUDER-EXEC PTSUNNY   85  65  51 VRB6      29.99F                  
FT LAUDERDALE  PTSUNNY   82  69  64 SE9       29.98F                  
POMPANO BEACH  PTSUNNY   77  68  73 E9        30.00S                  
PEMBROKE PINES FAIR      84  62  47 SW8       30.00F                  
OPA LOCKA      FAIR      84  65  52 W9        30.00F                  
MIAMI          PTSUNNY   84  66  54 W9        29.99F                  
WEST KENDALL   FAIR      84  66  54 NW9       30.00F                  
HOMESTEAD      FAIR      83  66  56 SW3       29.99F                  

STATION/POSITION SKY/WX   TEMP    WIND        PRES    WAVE   SWELL
                          AIR SEA DIR/SP/G            HT/PER HT/PER
                          (F)     (DEG/KT/KT) (MB)    (FT/S) (FT/S)
VIRGINIA KEY               79 80  190/  6/  9 1015.2F
LAKE WORTH                 74 79   30/ 12/ 14 1017.2F
FOWEY ROCKS                79 78  180/  3/  3 1016.8F
SETTLEMENT POINT           76     290/  9/ 10 1016.3F

$$